KAY873 FIMP-FSIA

Flight info

Callsign KAY873
Flight time 2h 30m
Altitude 39000
Route DUR1C DURDA UT401 ALRAN UM313 RERUS IMPOX IMPO1R
Aircraft A21N/M-SDE3FGHIRWY/LB1

Departure

Time 2026-04-23 17:47
Airport Sir Seewoosagur Ramgoolam International Airport (FIMP)

Arrival

Time 2026-04-23 20:18
Airport Seychelles International Airport (FSIA)
Time Latitude Longitude Altitude Speed Heading
2026-04-23 17:38 -20.43128 57.67764 192 ft 0 kts 207°
2026-04-23 17:39 -20.43123 57.67767 191 ft 2 kts 207°
2026-04-23 17:39 -20.43109 57.67774 190 ft 2 kts 207°
2026-04-23 17:39 -20.43096 57.67781 189 ft 2 kts 213°
2026-04-23 17:39 -20.43085 57.67791 188 ft 2 kts 228°
2026-04-23 17:40 -20.43075 57.67804 188 ft 2 kts 240°
2026-04-23 17:40 -20.43069 57.67819 188 ft 2 kts 252°
2026-04-23 17:40 -20.43066 57.67835 187 ft 2 kts 265°
2026-04-23 17:40 -20.43066 57.67851 187 ft 2 kts 277°
2026-04-23 17:41 -20.43070 57.67866 187 ft 2 kts 290°
2026-04-23 17:41 -20.43076 57.67880 186 ft 0 kts 298°
2026-04-23 17:43 -20.43063 57.67857 187 ft 9 kts 298°
2026-04-23 17:43 -20.43031 57.67788 188 ft 11 kts 296°
2026-04-23 17:43 -20.42993 57.67705 188 ft 14 kts 297°
2026-04-23 17:44 -20.42913 57.67624 186 ft 17 kts 331°
2026-04-23 17:44 -20.42814 57.67561 187 ft 15 kts 325°
2026-04-23 17:44 -20.42705 57.67555 193 ft 10 kts 25°
2026-04-23 17:45 -20.42633 57.67530 195 ft 12 kts 307°
2026-04-23 17:45 -20.42540 57.67349 197 ft 14 kts 297°
2026-04-23 17:45 -20.42510 57.67260 197 ft 11 kts 262°
2026-04-23 17:46 -20.42484 57.67234 198 ft 5 kts 105°
2026-04-23 17:46 -20.42498 57.67268 197 ft 5 kts 114°
2026-04-23 17:46 -20.42609 57.67506 195 ft 80 kts 118°
2026-04-23 17:47 -20.42997 57.68307 170 ft 161 kts 116°
2026-04-23 17:47 -20.43616 57.69466 621 ft 190 kts 118°
2026-04-23 17:47 -20.44930 57.72160 2265 ft 225 kts 114°
2026-04-23 17:48 -20.45658 57.73682 3101 ft 242 kts 114°
2026-04-23 17:48 -20.46264 57.75361 3960 ft 249 kts 96°
2026-04-23 17:48 -20.46112 57.77173 4944 ft 251 kts 71°
2026-04-23 17:48 -20.45223 57.78757 5859 ft 258 kts 47°
2026-04-23 17:49 -20.43714 57.79791 6745 ft 268 kts 21°
2026-04-23 17:49 -20.41841 57.79977 7621 ft 279 kts 353°
2026-04-23 17:49 -20.40041 57.79163 8451 ft 291 kts 327°
2026-04-23 17:49 -20.38380 57.77829 9063 ft 306 kts 325°
2026-04-23 17:50 -20.36658 57.76430 9538 ft 324 kts 325°
2026-04-23 17:50 -20.32855 57.73369 10385 ft 360 kts 325°
2026-04-23 17:50 -20.30784 57.71712 10757 ft 378 kts 324°
2026-04-23 17:51 -20.28645 57.70001 11295 ft 389 kts 324°
2026-04-23 17:51 -20.26505 57.68288 11957 ft 391 kts 324°
2026-04-23 17:51 -20.22108 57.64778 13145 ft 396 kts 324°
2026-04-23 17:52 -20.19909 57.63026 13944 ft 397 kts 324°
2026-04-23 17:52 -20.15092 57.60091 15254 ft 402 kts 338°
2026-04-23 17:52 -20.12463 57.59047 15913 ft 405 kts 342°
2026-04-23 17:53 -20.07090 57.57129 17155 ft 412 kts 342°
2026-04-23 17:53 -20.04367 57.56162 17748 ft 415 kts 342°
2026-04-23 17:53 -20.01604 57.55174 18345 ft 418 kts 342°
2026-04-23 17:54 -19.98829 57.54177 18917 ft 421 kts 342°
2026-04-23 17:54 -19.96041 57.53174 19511 ft 423 kts 341°
2026-04-23 17:54 -19.90421 57.51155 20601 ft 429 kts 341°
2026-04-23 17:55 -19.84750 57.48753 21089 ft 449 kts 335°
2026-04-23 17:55 -19.81896 57.47306 21307 ft 458 kts 334°
2026-04-23 17:55 -19.79018 57.45825 21771 ft 460 kts 334°
2026-04-23 17:56 -19.76148 57.44343 22454 ft 457 kts 334°
2026-04-23 17:56 -19.70470 57.41408 23875 ft 449 kts 334°
2026-04-23 17:56 -19.67670 57.39961 24620 ft 443 kts 334°
2026-04-23 17:57 -19.64919 57.38541 25280 ft 439 kts 334°
2026-04-23 17:57 -19.62176 57.37125 25956 ft 435 kts 334°
2026-04-23 17:57 -19.56816 57.34359 27301 ft 424 kts 335°
2026-04-23 17:58 -19.54184 57.33002 27983 ft 418 kts 335°
2026-04-23 17:58 -19.51577 57.31657 28536 ft 416 kts 335°
2026-04-23 17:58 -19.48978 57.30317 29041 ft 414 kts 335°
2026-04-23 17:58 -19.46408 57.28993 29594 ft 410 kts 335°
2026-04-23 17:59 -19.43843 57.27673 29894 ft 413 kts 335°
2026-04-23 17:59 -19.41214 57.26317 30093 ft 418 kts 335°
2026-04-23 17:59 -19.38607 57.24971 30434 ft 418 kts 335°
2026-04-23 17:59 -19.35980 57.23616 30761 ft 420 kts 335°
2026-04-23 18:00 -19.33366 57.22270 31058 ft 421 kts 335°
2026-04-23 18:00 -19.30722 57.20912 31416 ft 421 kts 335°
2026-04-23 18:00 -19.28086 57.19569 31838 ft 418 kts 336°
2026-04-23 18:00 -19.25474 57.18247 32195 ft 418 kts 336°
2026-04-23 18:01 -19.22846 57.16914 32516 ft 417 kts 336°
2026-04-23 18:01 -19.20202 57.15570 32872 ft 417 kts 336°
2026-04-23 18:01 -19.17578 57.14234 33174 ft 418 kts 335°
2026-04-23 18:01 -19.14965 57.12900 33498 ft 417 kts 335°
2026-04-23 18:02 -19.12361 57.11570 33855 ft 417 kts 335°
2026-04-23 18:02 -19.09750 57.10238 34127 ft 417 kts 335°
2026-04-23 18:02 -19.07131 57.08900 34349 ft 419 kts 335°
2026-04-23 18:02 -19.04483 57.07548 34585 ft 421 kts 335°
2026-04-23 18:03 -19.01856 57.06206 34837 ft 421 kts 335°
2026-04-23 18:03 -18.99216 57.04859 35083 ft 422 kts 335°
2026-04-23 18:03 -18.96558 57.03501 35304 ft 423 kts 334°
2026-04-23 18:03 -18.93917 57.02153 35548 ft 423 kts 334°
2026-04-23 18:04 -18.91257 57.00795 35805 ft 423 kts 334°
2026-04-23 18:04 -18.88588 56.99433 36053 ft 423 kts 334°
2026-04-23 18:04 -18.85930 56.98078 36269 ft 424 kts 334°
2026-04-23 18:04 -18.83293 56.96733 36432 ft 425 kts 334°
2026-04-23 18:05 -18.80602 56.95361 36590 ft 427 kts 334°
2026-04-23 18:05 -18.77910 56.93989 36778 ft 428 kts 334°
2026-04-23 18:05 -18.75244 56.92632 36946 ft 428 kts 334°
2026-04-23 18:06 -18.69853 56.89888 36975 ft 429 kts 334°
2026-04-23 18:06 -18.64487 56.87157 36972 ft 427 kts 334°
2026-04-23 18:07 -18.59119 56.84427 36965 ft 426 kts 334°
2026-04-23 18:07 -18.53770 56.81710 36951 ft 427 kts 334°
2026-04-23 18:08 -18.48422 56.78993 36963 ft 427 kts 334°
2026-04-23 18:08 -18.43063 56.76273 36958 ft 429 kts 334°
2026-04-23 18:09 -18.37615 56.73507 36947 ft 438 kts 334°
2026-04-23 18:09 -18.32095 56.70705 36942 ft 440 kts 334°
2026-04-23 18:10 -18.26574 56.67900 36949 ft 441 kts 334°
2026-04-23 18:10 -18.21052 56.65096 36940 ft 440 kts 334°
2026-04-23 18:11 -18.15474 56.62383 36936 ft 441 kts 337°
2026-04-23 18:11 -18.09705 56.60258 36927 ft 441 kts 343°
2026-04-23 18:12 -18.03702 56.58772 36953 ft 442 kts 349°
2026-04-23 18:12 -17.97594 56.57958 36940 ft 441 kts 353°
2026-04-23 18:13 -17.91497 56.57378 36923 ft 441 kts 354°
2026-04-23 18:13 -17.85370 56.56800 36945 ft 441 kts 354°
2026-04-23 18:14 -17.79261 56.56225 36929 ft 440 kts 353°
2026-04-23 18:14 -17.73147 56.55647 36926 ft 440 kts 353°
2026-04-23 18:15 -17.67065 56.55073 36941 ft 439 kts 353°
2026-04-23 18:15 -17.60994 56.54502 36928 ft 437 kts 353°
2026-04-23 18:16 -17.54939 56.53930 36935 ft 436 kts 353°
2026-04-23 18:16 -17.48881 56.53358 36927 ft 437 kts 353°
2026-04-23 18:17 -17.39752 56.52499 36933 ft 439 kts 353°
2026-04-23 18:17 -17.33675 56.51927 36927 ft 438 kts 353°
2026-04-23 18:18 -17.27576 56.51354 36926 ft 438 kts 353°
2026-04-23 18:18 -17.21479 56.50785 36946 ft 437 kts 353°
2026-04-23 18:19 -17.15420 56.50217 36917 ft 437 kts 353°
2026-04-23 18:19 -17.09350 56.49645 36931 ft 437 kts 352°
2026-04-23 18:20 -17.03327 56.49081 36931 ft 436 kts 352°
2026-04-23 18:20 -16.97272 56.48515 36931 ft 435 kts 352°
2026-04-23 18:21 -16.91231 56.47948 36937 ft 435 kts 352°
2026-04-23 18:21 -16.85174 56.47380 36932 ft 436 kts 352°
2026-04-23 18:22 -16.79114 56.46814 36928 ft 436 kts 352°
2026-04-23 18:22 -16.73077 56.46251 36938 ft 436 kts 352°
2026-04-23 18:23 -16.64019 56.45405 36939 ft 435 kts 352°
2026-04-23 18:24 -16.54944 56.44558 36923 ft 436 kts 352°
2026-04-23 18:25 -16.45874 56.43713 36916 ft 436 kts 352°
2026-04-23 18:25 -16.39819 56.43149 36908 ft 436 kts 352°
2026-04-23 18:26 -16.33762 56.42586 36910 ft 436 kts 352°
2026-04-23 18:26 -16.27700 56.42022 36913 ft 436 kts 352°
2026-04-23 18:27 -16.21680 56.41463 36904 ft 434 kts 352°
2026-04-23 18:27 -16.15652 56.40902 36885 ft 435 kts 352°
2026-04-23 18:28 -16.09603 56.40339 36896 ft 435 kts 352°
2026-04-23 18:28 -16.03548 56.39777 36911 ft 435 kts 352°
2026-04-23 18:29 -15.97529 56.39218 36906 ft 436 kts 352°
2026-04-23 18:29 -15.91466 56.38658 36923 ft 434 kts 352°
2026-04-23 18:30 -15.85441 56.38099 36906 ft 434 kts 352°
2026-04-23 18:30 -15.79406 56.37540 36899 ft 433 kts 351°
2026-04-23 18:31 -15.73410 56.36984 36898 ft 434 kts 352°
2026-04-23 18:31 -15.67366 56.36424 36908 ft 434 kts 352°
2026-04-23 18:32 -15.61337 56.35864 36895 ft 435 kts 352°
2026-04-23 18:32 -15.55313 56.35306 36912 ft 434 kts 352°
2026-04-23 18:33 -15.49268 56.34745 36912 ft 433 kts 352°
2026-04-23 18:33 -15.43276 56.34188 36880 ft 433 kts 352°
2026-04-23 18:34 -15.37250 56.33626 36908 ft 433 kts 352°
2026-04-23 18:34 -15.31259 56.33061 36900 ft 434 kts 352°
2026-04-23 18:35 -15.25226 56.32499 36911 ft 433 kts 352°
2026-04-23 18:35 -15.19219 56.31964 36889 ft 432 kts 352°
2026-04-23 18:36 -15.13222 56.31434 36890 ft 431 kts 352°
2026-04-23 18:36 -15.07230 56.30895 36890 ft 432 kts 352°
2026-04-23 18:37 -15.01219 56.30346 36879 ft 433 kts 352°
2026-04-23 18:37 -14.95181 56.29795 36902 ft 433 kts 352°
2026-04-23 18:38 -14.89171 56.29245 36898 ft 432 kts 352°
2026-04-23 18:38 -14.83189 56.28696 36886 ft 431 kts 352°
2026-04-23 18:39 -14.77194 56.28147 36894 ft 432 kts 352°
2026-04-23 18:39 -14.71190 56.27597 36898 ft 431 kts 352°
2026-04-23 18:40 -14.65221 56.27048 36903 ft 430 kts 352°
2026-04-23 18:40 -14.59249 56.26503 36870 ft 430 kts 352°
2026-04-23 18:41 -14.53260 56.25957 36882 ft 433 kts 352°
2026-04-23 18:41 -14.47269 56.25409 36889 ft 430 kts 352°
2026-04-23 18:42 -14.41264 56.24861 36879 ft 431 kts 352°
2026-04-23 18:42 -14.35302 56.24315 36886 ft 431 kts 352°
2026-04-23 18:43 -14.29309 56.23770 36880 ft 431 kts 352°
2026-04-23 18:43 -14.23317 56.23224 36900 ft 431 kts 351°
2026-04-23 18:44 -14.17325 56.22677 36893 ft 431 kts 352°
2026-04-23 18:44 -14.11369 56.22136 36886 ft 430 kts 351°
2026-04-23 18:45 -14.05386 56.21590 36880 ft 430 kts 352°
2026-04-23 18:45 -13.99420 56.21048 36892 ft 431 kts 351°
2026-04-23 18:46 -13.93447 56.20502 36891 ft 429 kts 351°
2026-04-23 18:46 -13.87483 56.19962 36892 ft 429 kts 351°
2026-04-23 18:47 -13.81509 56.19417 36874 ft 429 kts 352°
2026-04-23 18:47 -13.75538 56.18876 36899 ft 430 kts 352°
2026-04-23 18:48 -13.69551 56.18333 36884 ft 430 kts 352°
2026-04-23 18:48 -13.63615 56.17796 36878 ft 428 kts 351°
2026-04-23 18:49 -13.57647 56.17253 36887 ft 429 kts 351°
2026-04-23 18:49 -13.51693 56.16714 36891 ft 429 kts 351°
2026-04-23 18:50 -13.46715 56.16263 36882 ft 428 kts 351°
2026-04-23 18:50 -13.39791 56.15636 36892 ft 428 kts 351°
2026-04-23 18:51 -13.33834 56.15097 36863 ft 428 kts 351°
2026-04-23 18:51 -13.27889 56.14560 36880 ft 428 kts 351°
2026-04-23 18:52 -13.21945 56.14022 36875 ft 427 kts 351°
2026-04-23 18:52 -13.16019 56.13487 36873 ft 428 kts 351°
2026-04-23 18:53 -13.10072 56.12949 36874 ft 427 kts 351°
2026-04-23 18:53 -13.04150 56.12415 36859 ft 427 kts 351°
2026-04-23 18:54 -12.98183 56.11875 36885 ft 427 kts 351°
2026-04-23 18:54 -12.92354 56.11350 36869 ft 427 kts 351°
2026-04-23 18:55 -12.86450 56.10816 36874 ft 427 kts 351°
2026-04-23 18:55 -12.80499 56.10280 36869 ft 426 kts 351°
2026-04-23 18:56 -12.74575 56.09746 36862 ft 427 kts 351°
2026-04-23 18:56 -12.68673 56.09213 36879 ft 427 kts 351°
2026-04-23 18:57 -12.62727 56.08677 36872 ft 427 kts 351°
2026-04-23 18:57 -12.56805 56.08143 36879 ft 427 kts 351°
2026-04-23 18:58 -12.50859 56.07606 36872 ft 427 kts 351°
2026-04-23 18:58 -12.44928 56.07068 36871 ft 427 kts 351°
2026-04-23 18:59 -12.39019 56.06535 36867 ft 427 kts 351°
2026-04-23 18:59 -12.33075 56.05994 36877 ft 426 kts 351°
2026-04-23 19:00 -12.27148 56.05452 36869 ft 426 kts 351°
2026-04-23 19:00 -12.21246 56.04915 36881 ft 426 kts 351°
2026-04-23 19:01 -12.15287 56.04472 36885 ft 428 kts 354°
2026-04-23 19:01 -12.09298 56.04597 36859 ft 431 kts 360°
2026-04-23 19:02 -12.03342 56.05328 36880 ft 433 kts
2026-04-23 19:02 -11.97373 56.06272 36859 ft 433 kts
2026-04-23 19:03 -11.91393 56.07221 36867 ft 434 kts
2026-04-23 19:03 -11.85387 56.08173 36882 ft 435 kts
2026-04-23 19:04 -11.79412 56.09121 36869 ft 434 kts
2026-04-23 19:04 -11.73429 56.10069 36869 ft 432 kts
2026-04-23 19:05 -11.67478 56.11011 36854 ft 432 kts
2026-04-23 19:05 -11.61538 56.11951 36847 ft 432 kts
2026-04-23 19:06 -11.55580 56.12891 36852 ft 433 kts
2026-04-23 19:06 -11.49624 56.13833 36843 ft 433 kts
2026-04-23 19:07 -11.43654 56.14776 36857 ft 432 kts
2026-04-23 19:07 -11.37703 56.15715 36852 ft 432 kts
2026-04-23 19:08 -11.31727 56.16658 36848 ft 432 kts
2026-04-23 19:08 -11.25792 56.17594 36861 ft 432 kts
2026-04-23 19:09 -11.19828 56.18535 36853 ft 432 kts
2026-04-23 19:09 -11.13904 56.19468 36836 ft 432 kts
2026-04-23 19:10 -11.07948 56.20408 36854 ft 432 kts
2026-04-23 19:10 -11.01964 56.21350 36853 ft 431 kts
2026-04-23 19:11 -10.96036 56.22282 36843 ft 431 kts
2026-04-23 19:11 -10.90110 56.23214 36857 ft 431 kts
2026-04-23 19:12 -10.84169 56.24149 36854 ft 431 kts
2026-04-23 19:12 -10.78208 56.25085 36841 ft 431 kts
2026-04-23 19:13 -10.72285 56.26015 36852 ft 431 kts
2026-04-23 19:13 -10.66316 56.26952 36851 ft 432 kts
2026-04-23 19:14 -10.60366 56.27885 36848 ft 431 kts
2026-04-23 19:14 -10.54412 56.28820 36842 ft 432 kts
2026-04-23 19:15 -10.48486 56.29749 36847 ft 431 kts
2026-04-23 19:15 -10.42550 56.30679 36832 ft 431 kts
2026-04-23 19:16 -10.36592 56.31610 36842 ft 432 kts
2026-04-23 19:16 -10.30663 56.32536 36819 ft 431 kts
2026-04-23 19:17 -10.21728 56.33928 36832 ft 431 kts
2026-04-23 19:17 -10.15761 56.34852 36835 ft 432 kts
2026-04-23 19:18 -10.09845 56.35770 36833 ft 432 kts
2026-04-23 19:18 -10.03880 56.36581 36839 ft 431 kts
2026-04-23 19:19 -9.94913 56.36692 36840 ft 425 kts 353°
2026-04-23 19:20 -9.86084 56.35731 36841 ft 425 kts 350°
2026-04-23 19:20 -9.80190 56.35035 36843 ft 425 kts 350°
2026-04-23 19:21 -9.71360 56.33990 36846 ft 424 kts 350°
2026-04-23 19:22 -9.65509 56.33299 36851 ft 425 kts 350°
2026-04-23 19:22 -9.56658 56.32252 36849 ft 425 kts 350°
2026-04-23 19:23 -9.50798 56.31560 36850 ft 426 kts 350°
2026-04-23 19:24 -9.41945 56.30513 36848 ft 426 kts 350°
2026-04-23 19:24 -9.33104 56.29471 36850 ft 426 kts 350°
2026-04-23 19:25 -9.21283 56.28077 36848 ft 426 kts 350°
2026-04-23 19:26 -9.12414 56.27032 36846 ft 426 kts 350°
2026-04-23 19:27 -8.97691 56.25297 36834 ft 426 kts 350°
2026-04-23 19:28 -8.85870 56.23904 36830 ft 427 kts 350°
2026-04-23 19:29 -8.76974 56.22858 36828 ft 427 kts 351°
2026-04-23 19:30 -8.68130 56.21818 36831 ft 427 kts 350°
2026-04-23 19:31 -8.59247 56.20773 36832 ft 428 kts 351°
2026-04-23 19:31 -8.53313 56.20075 36822 ft 428 kts 350°
2026-04-23 19:32 -8.47389 56.19379 36832 ft 428 kts 350°
2026-04-23 19:32 -8.41453 56.18682 36830 ft 427 kts 351°
2026-04-23 19:33 -8.35526 56.17985 36831 ft 428 kts 350°
2026-04-23 19:33 -8.26635 56.16940 36823 ft 429 kts 351°
2026-04-23 19:34 -8.20694 56.16243 36832 ft 429 kts 350°
2026-04-23 19:35 -8.11778 56.15196 36835 ft 429 kts 351°
2026-04-23 19:35 -8.05797 56.14492 36825 ft 429 kts 351°
2026-04-23 19:36 -7.99873 56.13795 36828 ft 430 kts 351°
2026-04-23 19:36 -7.93896 56.13093 36833 ft 430 kts 351°
2026-04-23 19:37 -7.87921 56.12387 36833 ft 430 kts 351°
2026-04-23 19:37 -7.81992 56.11686 36848 ft 430 kts 351°
2026-04-23 19:38 -7.76029 56.10976 36837 ft 430 kts 351°
2026-04-23 19:38 -7.70067 56.10273 36834 ft 431 kts 351°
2026-04-23 19:39 -7.64100 56.09383 36827 ft 430 kts 346°
2026-04-23 19:39 -7.58302 56.07910 36830 ft 429 kts 341°
2026-04-23 19:40 -7.52601 56.06076 36825 ft 429 kts 340°
2026-04-23 19:40 -7.46905 56.04223 36826 ft 430 kts 340°
2026-04-23 19:41 -7.41197 56.02365 36830 ft 429 kts 340°
2026-04-23 19:41 -7.35496 56.00508 36826 ft 429 kts 340°
2026-04-23 19:42 -7.29789 55.98651 36827 ft 430 kts 340°
2026-04-23 19:42 -7.24107 55.96803 36826 ft 431 kts 340°
2026-04-23 19:43 -7.18378 55.94938 36830 ft 431 kts 340°
2026-04-23 19:43 -7.12684 55.93087 36827 ft 430 kts 340°
2026-04-23 19:44 -7.06951 55.91224 36826 ft 431 kts 340°
2026-04-23 19:44 -7.01209 55.89359 36831 ft 432 kts 340°
2026-04-23 19:45 -6.95493 55.87501 36825 ft 432 kts 340°
2026-04-23 19:45 -6.89757 55.85636 36829 ft 433 kts 340°
2026-04-23 19:46 -6.84005 55.83767 36828 ft 432 kts 340°
2026-04-23 19:46 -6.78291 55.81912 36830 ft 431 kts 340°
2026-04-23 19:47 -6.72554 55.80049 36827 ft 432 kts 340°
2026-04-23 19:47 -6.66822 55.78190 36828 ft 432 kts 340°
2026-04-23 19:48 -6.61099 55.76331 36829 ft 433 kts 340°
2026-04-23 19:48 -6.55356 55.74469 36828 ft 433 kts 340°
2026-04-23 19:49 -6.49606 55.72604 36830 ft 432 kts 340°
2026-04-23 19:49 -6.43871 55.70745 36828 ft 432 kts 340°
2026-04-23 19:50 -6.38135 55.68885 36824 ft 432 kts 340°
2026-04-23 19:50 -6.32379 55.67019 36821 ft 433 kts 340°
2026-04-23 19:51 -6.26638 55.65158 36817 ft 433 kts 340°
2026-04-23 19:51 -6.20888 55.63295 36804 ft 433 kts 340°
2026-04-23 19:51 -6.18033 55.62369 36324 ft 436 kts 340°
2026-04-23 19:52 -6.15119 55.61425 35586 ft 435 kts 340°
2026-04-23 19:52 -6.12233 55.60490 34858 ft 436 kts 340°
2026-04-23 19:52 -6.09357 55.59558 34136 ft 437 kts 341°
2026-04-23 19:52 -6.06451 55.58617 33418 ft 440 kts 341°
2026-04-23 19:53 -6.03529 55.57671 32705 ft 444 kts 341°
2026-04-23 19:53 -6.00582 55.56717 32055 ft 447 kts 341°
2026-04-23 19:53 -5.97584 55.55748 31409 ft 449 kts 341°
2026-04-23 19:53 -5.94605 55.54783 30769 ft 450 kts 341°
2026-04-23 19:54 -5.91658 55.53830 30141 ft 451 kts 341°
2026-04-23 19:54 -5.88623 55.52848 29499 ft 453 kts 341°
2026-04-23 19:54 -5.85617 55.51876 28865 ft 454 kts 341°
2026-04-23 19:54 -5.82602 55.50901 28243 ft 455 kts 341°
2026-04-23 19:55 -5.79615 55.49934 27633 ft 449 kts 341°
2026-04-23 19:55 -5.76629 55.48970 27013 ft 444 kts 341°
2026-04-23 19:55 -5.73724 55.48030 26406 ft 440 kts 341°
2026-04-23 19:55 -5.70807 55.47085 25799 ft 436 kts 341°
2026-04-23 19:56 -5.67949 55.46159 25196 ft 432 kts 341°
2026-04-23 19:56 -5.65091 55.45233 24590 ft 428 kts 341°
2026-04-23 19:56 -5.62249 55.44314 24096 ft 424 kts 341°
2026-04-23 19:56 -5.59465 55.43412 23610 ft 421 kts 341°
2026-04-23 19:57 -5.56663 55.42505 23124 ft 418 kts 341°
2026-04-23 19:57 -5.53919 55.41617 22658 ft 415 kts 342°
2026-04-23 19:57 -5.51164 55.40724 22181 ft 412 kts 342°
2026-04-23 19:57 -5.48433 55.39840 21715 ft 410 kts 342°
2026-04-23 19:58 -5.45721 55.38962 21257 ft 409 kts 342°
2026-04-23 19:58 -5.43001 55.38082 20792 ft 408 kts 342°
2026-04-23 19:58 -5.40313 55.37212 20335 ft 407 kts 342°
2026-04-23 19:58 -5.37614 55.36338 19870 ft 405 kts 342°
2026-04-23 19:59 -5.34917 55.35464 19399 ft 404 kts 342°
2026-04-23 19:59 -5.32254 55.34602 18942 ft 403 kts 342°
2026-04-23 19:59 -5.29585 55.33736 18478 ft 401 kts 342°
2026-04-23 19:59 -5.26932 55.32877 18012 ft 401 kts 342°
2026-04-23 20:00 -5.24265 55.32011 17544 ft 400 kts 342°
2026-04-23 20:00 -5.21608 55.31147 17075 ft 399 kts 342°
2026-04-23 20:00 -5.18979 55.30293 16607 ft 396 kts 342°
2026-04-23 20:00 -5.16350 55.29442 16164 ft 394 kts 342°
2026-04-23 20:01 -5.13741 55.28601 15742 ft 391 kts 342°
2026-04-23 20:01 -5.11091 55.28015 15315 ft 389 kts 352°
2026-04-23 20:01 -5.08406 55.27883 14896 ft 388 kts
2026-04-23 20:01 -5.05726 55.27969 14476 ft 385 kts
2026-04-23 20:02 -5.03035 55.28089 14049 ft 383 kts
2026-04-23 20:02 -5.00358 55.28209 13622 ft 380 kts
2026-04-23 20:02 -4.97768 55.28318 13209 ft 373 kts
2026-04-23 20:02 -4.95172 55.28424 12824 ft 364 kts
2026-04-23 20:03 -4.92657 55.28523 12445 ft 357 kts
2026-04-23 20:03 -4.90217 55.28617 12068 ft 350 kts
2026-04-23 20:03 -4.87796 55.28711 11682 ft 343 kts
2026-04-23 20:03 -4.85447 55.28801 11295 ft 331 kts
2026-04-23 20:04 -4.83180 55.28886 10898 ft 318 kts
2026-04-23 20:04 -4.80993 55.28968 10513 ft 304 kts
2026-04-23 20:04 -4.78924 55.29045 10148 ft 290 kts
2026-04-23 20:04 -4.76945 55.29118 9814 ft 277 kts
2026-04-23 20:05 -4.75066 55.29187 9483 ft 267 kts
2026-04-23 20:05 -4.73221 55.29254 9131 ft 258 kts
2026-04-23 20:05 -4.71466 55.29320 8779 ft 250 kts
2026-04-23 20:05 -4.69740 55.29384 8419 ft 243 kts
2026-04-23 20:06 -4.68057 55.29447 8050 ft 237 kts
2026-04-23 20:06 -4.66408 55.29509 7720 ft 235 kts
2026-04-23 20:06 -4.64778 55.29570 7383 ft 232 kts
2026-04-23 20:06 -4.63188 55.29628 7045 ft 226 kts
2026-04-23 20:07 -4.61623 55.29686 6697 ft 221 kts
2026-04-23 20:07 -4.60092 55.29743 6364 ft 219 kts
2026-04-23 20:07 -4.58570 55.29802 6033 ft 218 kts
2026-04-23 20:07 -4.57053 55.29859 5799 ft 216 kts
2026-04-23 20:08 -4.55546 55.29919 5528 ft 217 kts
2026-04-23 20:08 -4.54036 55.29978 5204 ft 215 kts
2026-04-23 20:08 -4.52549 55.30177 4970 ft 214 kts 13°
2026-04-23 20:08 -4.51141 55.30638 4759 ft 213 kts 22°
2026-04-23 20:09 -4.49846 55.31329 4552 ft 205 kts 32°
2026-04-23 20:09 -4.48732 55.32187 4333 ft 198 kts 41°
2026-04-23 20:09 -4.47801 55.33178 4099 ft 192 kts 51°
2026-04-23 20:09 -4.47056 55.34272 3874 ft 189 kts 59°
2026-04-23 20:10 -4.46488 55.35468 3735 ft 190 kts 68°
2026-04-23 20:10 -4.46110 55.36722 3597 ft 190 kts 76°
2026-04-23 20:10 -4.45926 55.38013 3435 ft 180 kts 84°
2026-04-23 20:10 -4.45932 55.39212 3316 ft 170 kts 92°
2026-04-23 20:11 -4.46095 55.40379 3172 ft 169 kts 100°
2026-04-23 20:11 -4.46422 55.41506 3026 ft 168 kts 108°
2026-04-23 20:11 -4.46913 55.42570 2876 ft 165 kts 117°
2026-04-23 20:11 -4.47530 55.43509 2714 ft 158 kts 125°
2026-04-23 20:12 -4.48256 55.44330 2578 ft 157 kts 133°
2026-04-23 20:12 -4.49089 55.45038 2432 ft 157 kts 141°
2026-04-23 20:12 -4.50027 55.45629 2289 ft 157 kts 150°
2026-04-23 20:12 -4.51030 55.46075 2206 ft 157 kts 158°
2026-04-23 20:13 -4.52083 55.46374 2193 ft 152 kts 166°
2026-04-23 20:13 -4.53106 55.46507 2167 ft 144 kts 174°
2026-04-23 20:13 -4.54102 55.46499 2183 ft 144 kts 182°
2026-04-23 20:13 -4.55114 55.46387 2191 ft 144 kts 183°
2026-04-23 20:14 -4.56112 55.46340 2141 ft 145 kts 179°
2026-04-23 20:14 -4.57118 55.46337 1975 ft 143 kts 178°
2026-04-23 20:14 -4.58129 55.46340 1808 ft 142 kts 178°
2026-04-23 20:14 -4.59114 55.46341 1641 ft 141 kts 178°
2026-04-23 20:15 -4.60102 55.46343 1475 ft 140 kts 177°
2026-04-23 20:15 -4.61073 55.46346 1309 ft 138 kts 178°
2026-04-23 20:15 -4.62049 55.46355 1140 ft 138 kts 174°
2026-04-23 20:15 -4.62978 55.46567 961 ft 135 kts 156°
2026-04-23 20:16 -4.63748 55.47056 799 ft 129 kts 132°
2026-04-23 20:16 -4.64306 55.47750 720 ft 126 kts 127°
2026-04-23 20:16 -4.64843 55.48489 661 ft 137 kts 123°
2026-04-23 20:16 -4.65393 55.49289 569 ft 138 kts 127°
2026-04-23 20:17 -4.65954 55.50071 363 ft 137 kts 126°
2026-04-23 20:17 -4.66496 55.50841 158 ft 133 kts 125°
2026-04-23 20:17 -4.67014 55.51574 15 ft 111 kts 124°
2026-04-23 20:17 -4.67309 55.51999 15 ft 53 kts 126°
2026-04-23 20:18 -4.67516 55.52290 15 ft 48 kts 124°
2026-04-23 20:18 -4.67699 55.52555 14 ft 44 kts 125°
2026-04-23 20:18 -4.67870 55.52795 18 ft 40 kts 126°
2026-04-23 20:18 -4.67983 55.52956 23 ft 19 kts 124°
2026-04-23 20:19 -4.68054 55.53055 26 ft 16 kts 126°
2026-04-23 20:19 -4.68128 55.53140 24 ft 16 kts 149°
2026-04-23 20:19 -4.68236 55.53171 20 ft 14 kts 161°
2026-04-23 20:19 -4.68232 55.53249 16 ft 15 kts 14°
2026-04-23 20:20 -4.68156 55.53199 22 ft 14 kts 307°
2026-04-23 20:20 -4.68049 55.53051 26 ft 33 kts 305°
2026-04-23 20:20 -4.67902 55.52841 19 ft 38 kts 305°
2026-04-23 20:20 -4.67743 55.52620 15 ft 39 kts 304°
2026-04-23 20:21 -4.67590 55.52396 14 ft 38 kts 306°
2026-04-23 20:21 -4.67436 55.52178 15 ft 38 kts 305°
2026-04-23 20:21 -4.67284 55.51965 15 ft 37 kts 306°
2026-04-23 20:21 -4.67134 55.51749 15 ft 37 kts 304°
2026-04-23 20:22 -4.66991 55.51544 15 ft 31 kts 304°
2026-04-23 20:22 -4.66909 55.51425 15 ft 12 kts 304°
2026-04-23 20:22 -4.66936 55.51350 15 ft 15 kts 209°
2026-04-23 20:22 -4.67015 55.51290 15 ft 12 kts 252°
2026-04-23 20:23 -4.66990 55.51228 15 ft 7 kts 296°
2026-04-23 20:23 -4.67007 55.51191 16 ft 4 kts 217°
2026-04-23 20:23 -4.67022 55.51179 17 ft 0 kts 216°